User: anonymous   Login
Location: Unspecified
(0.0000°N, 0.0000°E)
Time: 01:33:49
(UTC+00:00)
Language:

Cosmos 1741 - Orbit

View from above orbital plane
View from above orbital plane
View from above satellite
View from above satellite

Ground track
Ground track

The orbit data is extracted from the following two-line orbital elements,

1 16681U 86030A   18174.56063154 -.00000005 +00000-0 +78149-5 0  9990
2 16681 074.0241 340.2868 0019907 242.3687 155.0617 14.32960829681601
Epoch (UTC): 23 June 2018 13:27:18
Eccentricity: 0.0019907
inclination: 74.0241°
perigee height: 767 km
apogee height: 796 km
right ascension of ascending node: 340.2868°
argument of perigee: 242.3687°
revolutions per day: 14.32960829
mean anomaly at epoch: 155.0617°
orbit number at epoch: 68160

The dashed part of the orbit path shows where the satellite is in the earth's shadow,  

DLR